CPA979 ZSAM-VHHH

Flight info

Callsign CPA979
Flight time N/A
Altitude 25600
Route NUSPA7Y NUSPA W597 IKATA A470 BEBEM/N0420F256 A470 DOTMI/N0410F240 V512 ABBEY
Aircraft A21N/M-SDE3FGHIRWY/LB1

Departure

Time 2026-04-28 10:13
Airport Xiamen Gaoqi International Airport (ZSAM)

Arrival

Time N/A
Airport Hong Kong International Airport (VHHH)
Time Latitude Longitude Altitude Speed Heading
2026-04-28 10:02 24.54803 118.14120 75 ft 0 kts 232°
2026-04-28 10:07 24.54810 118.14131 75 ft 2 kts 239°
2026-04-28 10:07 24.54816 118.14146 75 ft 2 kts 260°
2026-04-28 10:07 24.54816 118.14163 75 ft 2 kts 278°
2026-04-28 10:08 24.54812 118.14179 75 ft 2 kts 295°
2026-04-28 10:08 24.54804 118.14194 75 ft 2 kts 313°
2026-04-28 10:08 24.54798 118.14200 75 ft 1 kts 324°
2026-04-28 10:08 24.54794 118.14203 75 ft 0 kts 322°
2026-04-28 10:10 24.54822 118.14180 75 ft 16 kts 322°
2026-04-28 10:10 24.54955 118.14066 75 ft 25 kts 322°
2026-04-28 10:10 24.55063 118.13992 75 ft 10 kts 11°
2026-04-28 10:10 24.55120 118.14043 75 ft 11 kts 51°
2026-04-28 10:11 24.55172 118.14117 75 ft 13 kts 52°
2026-04-28 10:11 24.55244 118.14159 75 ft 13 kts 336°
2026-04-28 10:11 24.55318 118.14095 75 ft 13 kts 302°
2026-04-28 10:11 24.55301 118.14005 75 ft 7 kts 232°
2026-04-28 10:12 24.55298 118.14002 75 ft 0 kts 232°
2026-04-28 10:12 24.55254 118.13939 75 ft 41 kts 232°
2026-04-28 10:12 24.54897 118.13438 76 ft 119 kts 231°
2026-04-28 10:12 24.54266 118.12534 134 ft 172 kts 230°
2026-04-28 10:13 24.53517 118.11468 785 ft 176 kts 229°
2026-04-28 10:13 24.52780 118.10450 1661 ft 171 kts 229°
2026-04-28 10:13 24.52032 118.09421 2270 ft 178 kts 229°
2026-04-28 10:13 24.51235 118.08319 2733 ft 194 kts 229°
2026-04-28 10:14 24.50352 118.07092 3221 ft 212 kts 230°
2026-04-28 10:14 24.49394 118.05759 3634 ft 235 kts 230°
2026-04-28 10:14 24.48367 118.04324 4382 ft 243 kts 230°
2026-04-28 10:14 24.47341 118.02888 5319 ft 243 kts 230°
2026-04-28 10:15 24.46299 118.01427 6228 ft 244 kts 230°
2026-04-28 10:15 24.45115 118.00112 7077 ft 246 kts 212°
2026-04-28 10:15 24.43511 117.99468 7886 ft 250 kts 190°
2026-04-28 10:15 24.41787 117.99249 8682 ft 254 kts 188°
2026-04-28 10:16 24.39997 117.99036 9454 ft 258 kts 188°
2026-04-28 10:16 24.38221 117.98816 10216 ft 262 kts 189°
2026-04-28 10:16 24.36417 117.98556 10993 ft 263 kts 195°
2026-04-28 10:16 24.34738 117.97727 11702 ft 264 kts 219°
2026-04-28 10:17 24.33454 117.96259 12188 ft 276 kts 232°
2026-04-28 10:17 24.32255 117.94553 12574 ft 293 kts 233°
2026-04-28 10:17 24.30981 117.92728 12920 ft 311 kts 233°
2026-04-28 10:17 24.29612 117.90788 13268 ft 328 kts 232°
2026-04-28 10:18 24.28180 117.88772 13577 ft 346 kts 232°
2026-04-28 10:18 24.26667 117.86652 13918 ft 361 kts 232°
2026-04-28 10:18 24.25055 117.84502 14460 ft 368 kts 230°
2026-04-28 10:18 24.23288 117.82420 15138 ft 372 kts 226°
2026-04-28 10:19 24.21451 117.80431 15774 ft 375 kts 225°
2026-04-28 10:19 24.19579 117.78418 16374 ft 379 kts 225°
2026-04-28 10:19 24.17685 117.76385 16970 ft 383 kts 225°
2026-04-28 10:19 24.15775 117.74335 17548 ft 386 kts 226°
2026-04-28 10:20 24.13846 117.72266 18102 ft 390 kts 226°
2026-04-28 10:20 24.11913 117.70187 18656 ft 393 kts 226°
2026-04-28 10:20 24.09937 117.68066 19176 ft 396 kts 226°
2026-04-28 10:20 24.07982 117.65971 19693 ft 399 kts 226°
2026-04-28 10:21 24.05979 117.63824 20215 ft 401 kts 225°
2026-04-28 10:21 24.03995 117.61694 20682 ft 404 kts 225°
2026-04-28 10:21 24.01969 117.59527 21131 ft 408 kts 225°
2026-04-28 10:21 23.99938 117.57357 21576 ft 411 kts 226°
2026-04-28 10:22 23.97876 117.55152 22000 ft 414 kts 226°
2026-04-28 10:22 23.95805 117.52934 22412 ft 417 kts 226°
2026-04-28 10:22 23.93739 117.50717 22849 ft 420 kts 226°
2026-04-28 10:22 23.91677 117.48508 23382 ft 419 kts 226°
2026-04-28 10:23 23.89568 117.46252 24016 ft 417 kts 226°
2026-04-28 10:23 23.87521 117.44062 24551 ft 417 kts 226°
2026-04-28 10:23 23.85578 117.41694 24975 ft 418 kts 233°
2026-04-28 10:23 23.84016 117.39033 25363 ft 420 kts 242°
2026-04-28 10:24 23.82840 117.36103 25503 ft 423 kts 250°
2026-04-28 10:24 23.81943 117.33057 25508 ft 423 kts 252°
2026-04-28 10:24 23.81093 117.29984 25507 ft 423 kts 252°
2026-04-28 10:24 23.80242 117.26899 25503 ft 423 kts 252°
2026-04-28 10:25 23.79390 117.23846 25502 ft 423 kts 252°
2026-04-28 10:25 23.78525 117.20787 25501 ft 423 kts 252°
2026-04-28 10:25 23.77639 117.17714 25498 ft 423 kts 250°
2026-04-28 10:25 23.76456 117.14762 25496 ft 423 kts 242°
2026-04-28 10:26 23.74891 117.12055 25494 ft 423 kts 234°
2026-04-28 10:26 23.72977 117.09603 25495 ft 423 kts 228°
2026-04-28 10:26 23.70957 117.07284 25494 ft 423 kts 227°
2026-04-28 10:26 23.68904 117.04962 25492 ft 423 kts 227°
2026-04-28 10:27 23.66883 117.02679 25491 ft 422 kts 227°
2026-04-28 10:27 23.64831 117.00353 25490 ft 422 kts 227°
2026-04-28 10:27 23.62790 116.98037 25489 ft 422 kts 227°
2026-04-28 10:27 23.60757 116.95727 25490 ft 422 kts 227°
2026-04-28 10:28 23.58742 116.93437 25489 ft 422 kts 227°
2026-04-28 10:28 23.56708 116.91125 25488 ft 422 kts 227°
2026-04-28 10:28 23.54678 116.88815 25487 ft 422 kts 227°
2026-04-28 10:29 23.50607 116.84187 25485 ft 422 kts 227°
2026-04-28 10:29 23.48567 116.81872 25484 ft 422 kts 227°
2026-04-28 10:29 23.46527 116.79563 25483 ft 422 kts 227°
2026-04-28 10:29 23.44437 116.77367 25483 ft 423 kts 224°
2026-04-28 10:30 23.42194 116.75252 25483 ft 423 kts 221°
2026-04-28 10:30 23.39884 116.73285 25481 ft 422 kts 219°
2026-04-28 10:30 23.37543 116.71337 25478 ft 422 kts 219°
2026-04-28 10:30 23.35195 116.69385 25477 ft 422 kts 219°
2026-04-28 10:31 23.32870 116.67454 25477 ft 422 kts 219°
2026-04-28 10:31 23.30528 116.65509 25476 ft 422 kts 219°
2026-04-28 10:31 23.28193 116.63569 25475 ft 422 kts 219°